Regional Weather Roundup
Issued by NWS Wakefield, VA

Home | Current Version | Previous Version | Text Only | Print | Product List | Glossary On
Versions: 1 2 3 4 5 6 7 8 9 10 11 12 13 14 15 16 17 18 19 20 21 22 23 24 25 26 27 28 29 30 31 32 33 34 35 36 37 38 39 40 41 42 43 44 45 46 47 48 49 50
000
ASUS41 KAKQ 301915
RWRAKQ

REGIONAL WEATHER ROUNDUP
NATIONAL WEATHER SERVICE WAKEFIELD VA
300 PM EDT SUN APR 30 2017

Note: "fair" indicates few or no clouds below 12,000 feet with no
significant weather and/or obstructions to visibility. * = Denotes
station may not report precipitation (e.g., rain,snow,etc.),
thunder or fog.

VAZ042-051-052>054-056-302000-
NORTHERN VIRGINIA

CITY           SKY/WX    TMP DP  RH WIND       PRES   REMARKS
WASH NATIONAL  PTSUNNY   86  69  56 S14       30.03F
DULLES         PTSUNNY   82  70  66 E6        30.03F
FORT BELVOIR   SUNNY     86  68  54 S7G20     30.04F
QUANTICO       MOSUNNY   85  70  60 S14       30.05F
FREDERICKSBRG* MOSUNNY   86  68  56 SW14G22   30.05F
STAFFORD*      MOSUNNY   84  67  56 S13G22    30.09F
WARRENTON      MOSUNNY   87  65  46 S14G26    30.04F
CULPEPER*      MOSUNNY   87  70  57 S15G21    30.04F
MANASSAS*        N/A     85  68  56 SW12G21   30.05S
LEESBURG*      MOSUNNY   81  72  74 SE5       30.05F
WINCHESTER     PTSUNNY   81  70  69 E7        30.02F
FRONT ROYAL*   CLOUDY    82  70  65 SE8       30.00F
LURAY*         CLEAR     86  64  48 SW14G21   30.02F
$$

VAZ048-049-060>072-079>083-302000-
CENTRAL AND SOUTH CENTRAL VIRGINIA

CITY           SKY/WX    TMP DP  RH WIND       PRES   REMARKS
RICHMOND       MOSUNNY   86  64  47 SW15G28   30.10F
CHESTERFIELD*  FAIR     N/A N/A N/A S14G22    30.11F
PETERSBURG*    PTSUNNY   83  62  48 SW12G18   30.12F
HANOVER        MOSUNNY   86  63  45 SW14G21   30.10F
TAPPAHANNOCK*  SUNNY     88  57  35 SW12G23   30.10S
QUINTON*       FAIR      85  65  49 SW12G20   30.10F
CHARLOTTSVILLE MOSUNNY   86  63  45 SW17G31   30.06F
GORDONSVILLE*  PTCLDY    84  67  55 SW15G26   30.06F
ORANGE*        MOSUNNY   82  66  57 SW14G28   30.06F
LOUISA*        MOSUNNY   88  70  55 SW13      30.07F
BUMPASS*       FAIR      84  67  57 S3G20     30.09F
FARMVILLE*     SUNNY     86  65  49 SW14G21   30.10F
CREWE*         FAIR      84  66  54 S10       30.12F
FORT PICKETT*  NOT AVBL
CHASE CITY*    FAIR      84  62  48 S5        30.14F
CLARKSVILLE*   FAIR      81  66  61 S8        30.14F
SOUTH HILL*    PTSUNNY   82  67  61 SW14G20   30.20F
LAWRENCEVILLE* MOCLDY    83  65  55 S12G17    30.14F
EMPORIA*       MOSUNNY   82  66  57 S9G16     30.16F
$$

VAZ088>098-302000-
SOUTHEAST VIRGINIA

CITY           SKY/WX    TMP DP  RH WIND       PRES   REMARKS
NORFOLK        PTSUNNY   89  66  46 SW15      30.11F
VIRGINIA BEACH NOT AVBL
NORFOLK NAVAL  NOT AVBL
WEST POINT*    MOSUNNY   86  62  44 SW12      30.12S
SALUDA*        FAIR      86  67  51 SW7       30.10S
NEWPORT NEWS   MOSUNNY   86  65  49 W16G22    30.11F
LANGLEY AFB    MOSUNNY   86  68  54 SW14G21   30.11F
FORT EUSTIS    MOSUNNY   88  66  48 SW8       30.09F
WILLIAMSBURG*  SUNNY     90  66  45 W6G18     30.12F
HR EXEC AP*    FAIR      88  66  48 W10G16    30.09F
FRANKLIN*      MOSUNNY   85  65  52 SW13G21   30.14S
US460-WAKEFLD  MOSUNNY   86  66  51 S8G21     30.13S
$$

VAZ020-022-025-037-045-302000-
WEST CENTRAL AND SOUTHWEST VIRGINIA

CITY           SKY/WX    TMP DP  RH WIND       PRES   REMARKS
STAUNTON*      PTSUNNY   84  63  49 S14       30.08F
WAYNESBORO*    PTCLDY    82  64  53 S14G23    30.09F
HOT SPRINGS VA MOSUNNY   73  50  43 S13G24    30.22S
LYNCHBURG      SUNNY     81  61  50 SW14G21   30.13F
DANVILLE       MOSUNNY   82  65  56 SW9G18    30.13F
SOUTH BOSTON*  MOCLDY    81  64  54 SW7       30.13F
MARTINSVILLE   PTSUNNY   80  62  54 S6        30.17F
ROANOKE        MOSUNNY   83  60  45 S12G20    30.12F
BLACKSBURG     PTSUNNY   78  57  48 SW7       30.20F
DUBLIN*        PTSUNNY   80  51  36 S14G20    30.18F
MARION*        MOSUNNY   79  55  43 CALM      30.19S
HILLSVILLE*    MOSUNNY   75  60  61 S12G21    30.20F
RICHLANDS*     MOCLDY    79  56  45 S6        30.14F
WISE*          MOSUNNY   79  50  36 S12G24    30.11F
ABINGDON*      CLOUDY    81  54  39 S10       30.12F
$$

MDZ021>025-VAZ099-100-302000-
SOUTHERN MARYLAND AND THE DELMARVA PENINSULA

CITY           SKY/WX    TMP DP  RH WIND       PRES   REMARKS
PATUXENT RIVER MOSUNNY   76  70  82 SE13      30.07F
BAY BRIDGE APT PTSUNNY   79  66  65 E7        30.08S
LEONARDTOWN    SUNNY     86  64  48 SW6G16    30.09S
DOVER          CLOUDY    66  61  85 E13       30.12F
GEORGETOWN     MOSUNNY   75  65  70 E9        30.11F
EASTON         PTSUNNY   81  66  61 E12       30.12F
CAMBRIDGE      SUNNY     84  70  61 S8G15     30.08F
SALISBURY      MOSUNNY   85  68  56 S8        30.08F
OCEAN CITY     CLOUDY    73  65  75 SW10G17   30.12F
WALLOPS ISLAND SUNNY     78  69  73 S14       30.12S
ACCOMACK*      SUNNY     85  67  54 SW10G18   30.12S
$$

NCZ012>017-030>032-302000-
NORTH CENTRAL AND EASTERN NORTH CAROLINA

CITY           SKY/WX    TMP DP  RH WIND       PRES   REMARKS
ROANOKE RAPIDS MOCLDY    81  68  65 SW7       30.15F
RALEIGH        PTSUNNY   84  67  56 W10       30.15F
ELIZABETH CITY SUNNY     84  71  65 S15G22    30.14F
AHOSKIE*         N/A     83  68  60 CALM      30.15S
EDENTON*       SUNNY     87  69  55 SW8       30.15F
CURRITUCK*     SUNNY     86  66  51 S9G20     30.15S
KILL DEVIL HLS SUNNY     84  69  60 CALM      30.15S
MANTEO         MOSUNNY   81  71  71 S20       30.16S
CAPE HATTERAS  PTSUNNY   82  72  71 SW9       30.21S HAZE
TARBORO*       NOT AVBL
GOLDSBORO      MOSUNNY   86  68  54 SW14G24   30.14F
WASHINGTON     MOSUNNY   85  67  55 SW8G20    30.15F
GREENVILLE     MOSUNNY   86  68  54 S14       30.16F
NEW BERN       MOSUNNY   85  69  58 SW16      30.18F
WILMINGTON     MOSUNNY   82  68  62 S16       30.19F
$$

VAZ048-302000-
ELSEWHERE

CITY           SKY/WX    TMP DP  RH WIND       PRES   REMARKS
HARRISBURG PA  CLOUDY    74  62  66 SE13      30.08F
BALTIMORE      MOSUNNY   78  66  66 E12       30.07F
ANNAPOLIS      MOSUNNY   78  67  68 E9        30.07F
ANDREWS AFB    MOSUNNY   86  67  52 S12       30.04F
PHILADELPHIA   CLOUDY    72  50  45 SE8       30.14F
HENDERSON NC   MOSUNNY   78  62  58 SW9G22    30.16F
GREENSBORO     PTSUNNY   80  65  59 SW12      30.14F
ROCKY MOUNT    MOSUNNY   84  69  60 SW12      30.15F
$$

VAZ100-302000-
MARINE

STATION/POSITION TIME  TEMP    WIND        PRES    WAVE   SWELL
                       AIR SEA DIR/SP/G            HT/PER HT/PER
                 (UTC) (F)     (DEG/KT/KT) (MB)    (FT/S) (FT/S)
CAPE MAY NJ      1848   61 59   80/ 12/ 21 1020.0F
LEWES DE         1842   58 61  110/  9/ 11 1020.2F
15NM E FENWICK I 1850   58 58  120/  8/ 10 1020.9R   3/ 6   2/ 6
OCEAN-CITY-INLET 1842   65 54  190/  6/ 11 1020.3F
WACHAPREAGUE VA  1848   75 76  160/  8/ 12 1019.8F
THOMAS POINT MD  1900   75 63   90/ 10/ 11   N/A
GOOSES REEF MD   1900   69 60  160/ 14/ 14 1018.9    2/ 3
COVE POINT MD    1848   69     170/ 14/ 16 1019.1F
SOLOMONS ISLAND  1842   72 66  110/  9/ 13   N/A
BISHOPS HEAD MD  1848   72 79  140/ 11/ 12 1019.7F
PINEY POINT MD   1848          260/ 10/ 13   N/A
POTOMAC MD       1900   77 67  240/  8/ 10 1017.8    1/ 2
CAMBRIDGE MD     1842   85 70                N/A
LEWISETTA VA     1848   85 75  230/ 16/ 24 1018.3F
RAPPAHANNOCK LGT 1848          170/ 14/ 15 1020.5S
STINGRAY PT      1900   76 68  230/  6/  8 1019.8    1/ 2
YORK RVR RNG VA  1848   80     240/ 12/ 15 1019.1F
YORKTOWN VA      1848   84 68  210/ 13/ 17 1019.2F
JAMESTOWN VA     1900   83 74  220/ 10/ 16   N/A     1
DOMINION TERM VA 1848   80     240/ 11/ 14 1020.1F
KIPTOPEKE VA     1842      68  160/  5/  5   N/A
CHES BAY BRIDGE  1842   73 64   80/  8/ 10 1020.0S
CAPE HENRY VA    1842   77      30/  7/ 12   N/A
WILLOUBY STN VA  1842   80     250/ 14/ 15 1020.9F
S CRANEY ISL VA  1848   86     240/  9/ 14 1019.9S
CAPE HENRY BUOY  1842      65                N/A     2/ 5
1ST LANDING BUOY 1900   71 67              1020.0    1/ 3
CAPE CHARLES BUO 1851      65                N/A     2/ 5
64NM E OF VA BCH 1850   64 60  210/  8/ 10 1021.9F   2/ 5   2/ 5
DUCK PIER NC     1842   82 56  200/ 12/ 15 1020.5F
44100 DUCK FRF   1835      64                N/A     2/ 7
44056 DUCK FRF   1830      60                N/A     2/ 7
OREGON INLET NC  1842   76 79  190/ 19/ 21 1021.8S
HATTERAS NC      1842   78 74  200/  9/ 14 1022.6F
DIAMOND SHLS NC  1850   77 75  220/ 16/ 19 1022.8F   3/ 4   2/ 7
CAPE LOOKOUT NC  1900   78     220/  9/ 13 1022.5F
$$



USA.gov is the U.S. government's official web portal to all federal, state and local government web resources and services.